sat.trackr.live / text

‹ back to catalog

STARLINK-31170

NORAD 58801 · 2024-012Q

PAYLOAD ACTIVE UNKNOWN

§ Identity

Operator
Country
US
Launch date
2024-01-15
Launch site
AFETR
Launch vehicle
Mass (kg)
RCS (m²)

Purposes: comms

External: N2YO · Heavens-Above · Gunter

§ Orbital elements

Epoch: 2026-09-20T09:35:22.269984Z

Period
94.27 min
Inclination
43.0043°
Eccentricity
0.0001383
Mean motion
15.27580575 rev/d
Perigee alt
482.1 km
Apogee alt
484.0 km
Semi-major
6,861.2 km
B*
2.8983e-5
RAAN
145.6855°
Arg perigee
264.7892°
Mean anomaly
95.2802°
Rev number
15,101

§ Raw data

STARLINK-311701 58801U 24012Q   26263.39956331  .00000535  00000+0  28983-4 0  99952 58801  43.0043 145.6855 0001383 264.7892  95.2802 15.27580575151014

JSON: /api/v1/satellites/58801 · /tle

For live sub-satellite position, see the globe view (requires WebGL).

§ Visibility from observer

Set your observer location to see the next 7 days of passes ≥ 10°. The values pass through the URL so the page stays shareable.

No JS? Fill the form by hand. The geolocation button needs JavaScript.